General Aviation Weather

Text Reports

Enter one or more of the following location identifiers separated by a space:

Zip Code, Four-Character ICAO or Three-Character IATA airport codes.

METAR - Aviation Routine Weather Report
PADE - Deering, Alaska
Updated at 3:53 PM GMT on July 24, 2016 (7:53 AM AKDT):
METAR PADE 241553Z AUTO 24014KT 10SM -RA OVC005 11/08 A2970 RMK AO2 SLP057 P0000 T01060083 TSNO
TAF - Terminal Area Forecast
PADE - Deering, Alaska
Updated at 3:53 PM GMT on July 24, 2016 (7:53 AM AKDT):
No TAF is currently available for this location.
Decoded:
No decoded TAF is available.
PIREP - Pilot Weather Report
PADE - Deering, Alaska
Updated at 3:53 PM GMT on July 24, 2016 (7:53 AM AKDT):
No PIREP is currently available for this location.
AIRMET - Airmens Meteorological Information
PADE - Deering, Alaska
Updated at 3:53 PM GMT on July 24, 2016 (7:53 AM AKDT):
No AIRMET is currently available for this location.
SIGMET - Significant Meteorological Information
PADE - Deering, Alaska
Updated at 3:53 PM GMT on July 24, 2016 (7:53 AM AKDT):
No SIGMET is currently available for this location.
NOTAM - Notice to Airmen
PADE - Deering, Alaska
Updated at 3:53 PM GMT on July 24, 2016 (7:53 AM AKDT):
No NOTAM is currently available for this location.
Forecast Area
PADE - Deering, Alaska
Updated at 3:53 PM GMT on July 24, 2016 (7:53 AM AKDT):
No NOTAM is currently available for this location.
Aviation Weather Maps